Regional Weather Roundup
Issued by NWS

Home | Current Version | Previous Version | Graphics & Text | Print | Product List | Glossary On
Versions: 1 2 3 4 5 6 7 8 9 10 11 12 13 14 15 16 17 18 19 20 21 22 23 24 25 26 27 28 29 30 31 32 33 34 35 36 37 38 39 40 41 42 43 44 45 46 47 48 49 50
000
ASUS43 KLOT 160803
RWRIL

ILLINOIS REGIONAL WEATHER ROUNDUP
NATIONAL WEATHER SERVICE CHICAGO/ROMEOVILLE IL
200 AM CST MON JAN 16 2017

NOTE: "FAIR" INDICATES FEW OR NO CLOUDS BELOW 12,000 FEET WITH NO
SIGNIFICANT WEATHER AND/OR OBSTRUCTIONS TO VISIBILITY.

* THESE STATIONS ARE NOT UNDER NWS QUALITY CONTROL. THEY ALSO MAY NOT
  REPORT WEATHER SUCH AS PRECIPITATION OR FOG.

ILZ001-002-007-009-015-016-024-160900-
NORTHWEST ILLINOIS

CITY           SKY/WX    TMP DP  RH WIND       PRES   REMARKS
MOLINE         CLOUDY    33  27  78 E7        30.24R HAZE    WCI  27
STERLING*      MIX PCPN  31  29  92 E9        30.25F FOG     WCI  23
SAVANNA*       MIX PCPN  31  28  87 E5        30.26S WCI  26
$$

ILZ003-004-008-010-011-017-018-160900-
NORTH CENTRAL ILLINOIS

CITY           SKY/WX    TMP DP  RH WIND       PRES   REMARKS
ROCKFORD       CLOUDY    31  24  75 CALM      30.28S
FREEPORT*      CLOUDY    29  25  85 SE5       30.28R WCI  24
ROCHELLE*      LGT RAIN  31  28  91 E6        30.27S WCI  25
DE KALB*       CLOUDY    32  28  84 SE3       30.27S
$$

ILZ005-006-012>014-019>023-160900-
NORTHEAST ILLINOIS

CITY           SKY/WX    TMP DP  RH WIND       PRES   REMARKS
CHICAGO-OHARE  CLOUDY    32  27  81 SE3       30.27S
CHICAGO-MIDWAY CLOUDY    34  25  69 SE5       30.28S WCI  30
AURORA         CLOUDY    33  27  78 SE5       30.28R HAZE    WCI  29
LANSING*       CLOUDY    32  29  90 E3        30.28F
JOLIET*        CLOUDY    34  30  86 E5        30.28R WCI  30
WAUKEGAN       CLOUDY    24  21  88 CALM      30.28R FOG
DUPAGE AIRPORT CLOUDY    33  25  72 E3        30.26F
KANKAKEE*      CLOUDY    32  29  87 CALM      30.28F
WHEELING       CLOUDY    30  24  78 CALM      30.30R
MORRIS*        CLOUDY    33  29  88 E5        30.26S WCI  28
ROMEOVILLE*    LGT RAIN  32  31  94 E5        30.27S WCI  27
NORTHERLY ISL    N/A     31  28  89 CALM        N/A
$$

LMZ740>746-160900-
SOUTHERN LAKE MICHIGAN

STATION/POSITION SKY/WX   TEMP    WIND        PRES    VSBY  WAVE
                          AIR SEA DIR/SP/G                  HT/PER
                          (F)     (DEG/KT/KT) (MB)    (MI)  (FT/S)
HARRISON CRIB              33     150/  5/  6   N/A
BURNHAM HARBOR             31      90/  1/  3   N/A
CALUMET HARBOR             32     160/  3/  4 1024.9F
BURNS HARBOR               33     170/  5/  7 1026.1S
MICHIGAN CITY              32     120/  3/  4   N/A
$$

ILZ025>027-034>036-040-047-049-050-058-095>099-160900-
WEST-CENTRAL ILLINOIS

CITY           SKY/WX    TMP DP  RH WIND       PRES   REMARKS
QUINCY         FOG       32  32 100 SE8       30.18S VSB 1/2 WCI  25
GALESBURG*     CLOUDY    32  30  93 E7        30.22F FOG     WCI  26
MACOMB*        CLOUDY    32  32 100 E7        30.24S FOG     WCI  26
JACKSONVILLE*  CLOUDY    33  32  97 E7        30.21R FOG     WCI  27
PITTSFIELD*    FOG       33  33  99 E5        30.20F VSB 3/4 WCI  28
$$

ILZ028>032-037-038-041>044-048-051>054-059>061-160900-
CENTRAL ILLINOIS

CITY           SKY/WX    TMP DP  RH WIND       PRES   REMARKS
BLOOMINGTON    CLOUDY    32  31  96 E8        30.24F FOG     WCI  25
DECATUR        CLOUDY    33  33 100 E6        30.24R FOG     WCI  28
PEORIA         CLOUDY    33  31  92 E7        30.25S FOG     WCI  27
LACON*         CLOUDY    32  31  95 CALM      30.25S FOG
LINCOLN*       CLOUDY    34  34  99 E5        30.24S FOG     WCI  30
SPRINGFIELD    CLOUDY    35  33  92 E7        30.23S FOG     WCI  29
TAYLORVILLE    CLOUDY    34  33  98 E7        30.22S FOG     WCI  28
$$

ILZ033-039-045-046-055>057-062-063-160900-
EAST-CENTRAL ILLINOIS

CITY           SKY/WX    TMP DP  RH WIND       PRES   REMARKS
CHAMPAIGN      CLOUDY    34  31  88 E10       30.24F FOG     WCI  26
MATTOON        CLOUDY    36  35  96 SE6       30.23S FOG     WCI  31
PARIS*         CLOUDY    34  33  98 E5        30.27S FOG     WCI  30
$$

ILZ079-100>102-160900-
SOUTHWEST ILLINOIS

CITY           SKY/WX    TMP DP  RH WIND       PRES   REMARKS
ALTON          FOG       36  36 100 E7        30.19F VSB 1/2 WCI  30
BELLEVILLE     FOG       38  38 100 E3        30.19F VSB 1/4
CAHOKIA*       FOG       39  37  92 E5        30.19F VSB 3/4
SPARTA*        FOG       38  38 100 E3        30.21S VSB 3/4
$$

ILZ064>066-069>071-074>076-080>082-084>086-088>090-092>094-160900-
SOUTH-CENTRAL ILLINOIS

CITY           SKY/WX    TMP DP  RH WIND       PRES   REMARKS
CARBONDALE     FOG       40  40 100 E3        30.20F VSB 1
CAIRO*         CLOUDY    42  42 100 E3        30.20S FOG
EFFINGHAM*     CLOUDY    37  37 100 E8        30.24F FOG     WCI  31
MARION         CLOUDY    41  41 100 CALM      30.21S FOG
MT. VERNON     FOG       39  39 100 NE5       30.22F VSB 1
SALEM*         FOG       40  38  95 E3        30.22S VSB 1/2
$$

ILZ067-068-072-073-078-083-087-091-160900-
SOUTHEAST ILLINOIS

CITY           SKY/WX    TMP DP  RH WIND       PRES   REMARKS
LAWRENCEVILLE  CLOUDY    39  39 100 E5        30.26R FOG
FLORA*         CLOUDY    40  39  97 E6        30.24S FOG
FAIRFIELD*     FOG       39  39 100 CALM      30.22S VSB 1
HARRISBURG*    CLOUDY    41  41 100 E5        30.23S FOG
ROBINSON*      CLOUDY    37  37  98 E3        30.27S FOG
CARMI*         CLOUDY    40  40 100 E3        30.23S FOG
$$

ABBREVIATIONS USED IN REMARKS
   TC - TEMPERATURE IN CELSIUS
  WCI - WIND CHILL INDEX
   HX - HEAT INDEX
  VSB - VISIBILITY
$$





USA.gov is the U.S. government's official web portal to all federal, state and local government web resources and services.